Regional Weather Roundup
Issued by NWS

Home | Current Version | Previous Version | Text Only | Print | Product List | Glossary Off
Versions: 1 2 3 4 5 6 7 8 9 10 11 12 13 14 15 16 17 18 19 20 21 22 23 24 25 26 27 28 29 30 31 32 33 34 35 36 37 38 39 40 41 42 43 44 45 46 47 48 49 50

000
ASUS44 KMEG 291610
RWRTN
TENNESSEE HOURLY STATE WEATHER ROUNDUP
NATIONAL WEATHER SERVICE MEMPHIS TN
1100 AM CDT FRI MAY 29 2015

TNZ002-004-019-021-049-052-054-088>092-291700-
WEST TENNESSEE

CITY           SKY/WX    TMP DP  RH WIND       PRES   REMARKS
MEMPHIS INTL   PTSUNNY   83  71  67 S10       30.10S
NWS MEMPHIS      N/A     81 N/A N/A MISG        N/A
JACKSON        CLOUDY    76  69  79 S8        30.13S
DYERSBURG      PTSUNNY   77  59  53 SE7       30.11F
PARIS          PTSUNNY   75  66  73 SW7       30.14S
LEXINGTON      CLOUDY    72  66  83 S7        30.15R
$$

TNZ008-025-027-028-033-062-065-066-291700-
NORTH MIDDLE TENNESSEE

CITY           SKY/WX    TMP DP  RH WIND       PRES   REMARKS
NASHVILLE      PTSUNNY   76  67  73 S8        30.19S
CLARKSVILLE    PTSUNNY   76  67  73 S10       30.15F
SMYRNA         CLOUDY    75  68  79 S8        30.20S
COOKEVILLE     PTSUNNY   77  68  73 S8        30.21S
CROSSVILLE     MOSUNNY   74  64  71 VRB7      30.26S
$$

TNZ061-075-076-078-094-096-097-291700-
SOUTH MIDDLE TENNESSEE

CITY           SKY/WX    TMP DP  RH WIND       PRES   REMARKS
FAYETTEVILLE   PTSUNNY  N/A N/A N/A MISG      30.20F
TULLAHOMA      MOSUNNY   75  64  69 S6        30.22S
WINCHESTER     PTSUNNY   79  66  65 S8        30.21S
MCMINNVILLE    PTSUNNY   79  70  73 VRB6      30.22S
COLUMBIA       CLOUDY    75  70  83 S6        30.17S
SHELBYVILLE    PTSUNNY   75  70  83 S10       30.21S
$$

TNZ017-018-042-046-047-291700-
NORTHEAST TENNESSEE

CITY           SKY/WX    TMP DP  RH WIND       PRES   REMARKS
TRI CITIES     PTSUNNY   79  63  57 VRB3      30.26S
ELIZABETHTON   SUNNY     75  63  64 E5        30.26F
$$

TNZ012-013-036-069-073-074-291700-
CENTRAL EAST TENNESSEE

CITY           SKY/WX    TMP DP  RH WIND       PRES   REMARKS
KNOXVILLE      PTSUNNY   81  62  52 VRB3      30.21F
OAK RIDGE      MOSUNNY   83  65  54 VRB6      30.23F
GATLINBURG       N/A     81  61  50 SE3       30.21F
MORRISTOWN     SUNNY     81  64  57 VRB3      30.25S
$$

TNZ083-085-099-291700-
SOUTHEAST TENNESSEE

CITY           SKY/WX    TMP DP  RH WIND       PRES   REMARKS
CHATTANOOGA    CLOUDY    76  66  71 S7        30.22S
$$

SKY/WX REPORTED AS FAIR MEANS FEW OR NO CLOUDS BELOW
12 THOUSAND FEET.



USA.gov is the U.S. government's official web portal to all federal, state and local government web resources and services.